Погода в Рисане

Черногория     42˚30′53″N   18˚41′57″E
темп.,
°C
ветер,
м/с
пор.,
м/с
влажн.,
%
обл.,
%
осадки,
мм/ч
давл.,
гПа
погр.,
м
17 января, вс
вс1701:00−6˚ссв465018 0.0 1021418
04:00−7˚ссв465267 0.0 1020226
07:00−7˚ссв355051 0.0 1020156
10:00−3˚с123797 0.0 1019287
13:00−1˚юз123799 0.0 1017895
16:00−3˚зюз126362 0.0 1017361
19:00−4˚ссв228580 0.1 1018147
22:00−4˚св237771 0.1 1020104
18 января, пн
пн1801:00−5˚ссв365935 0.1 1020197
04:00−6˚ссв35570 0.0 1022187
07:00−7˚ссв45570 0.0 1023186
10:00−4˚св34400 0.0 1024315
13:00ссв22260 0.0 1023678
16:00−2˚ссв01370 0.0 102426
19:00−4˚ссв235224 0.0 102660
22:00−4˚ссв3440100 0.0 102798
19 января, вт
вт1901:00−4˚ссв344350 0.0 102781
04:00−4˚ссв33610 0.0 102778
07:00−4˚ссв33660 0.0 102865
10:00+1˚с12470 0.0 1028222
13:00+3˚зюз23510 0.0 1027729
16:00юз11790 0.0 102622
19:00−2˚с12850 0.0 102821
22:00−2˚ссв118314 0.0 102821
20 января, ср
ср2001:00−1˚ссв019045 0.0 102821
04:00−1˚всв119298 0.0 102730
07:00св228678 0.0 102737
10:00+2˚в1181100 0.1 1026159
13:00+1˚в1195100 0.5 102593
16:00+1˚в2299100 1.2 102465
19:00+1˚в1298100 2.0 102441
22:00+2˚в1296100 0.1 102436
21 января, чт
чт2101:00+2˚вюв1298100 0.8 102330
04:00+2˚вюв1296100 0.2 102232
07:00+3˚в229699 0.3 102154
10:00+4˚в2295100 0.1 102067
13:00+4˚в2395100 0.2 101999
16:00+4˚юв2498100 0.4 1018121
19:00+6˚ю39100100 2.4 1018398
22:00+6˚ююз25100100 3.0 1018213